Station History

Weather Underground - logo

Station Historical Data
Daily Summary for October 27, 2017 Units:  English    Metric   Both
« Previous Day
Next Day »
Daily Weekly Monthly Yearly Custom
  High: Low: Average:
Temperature: 86.9 °F 52.3 °F 67.6 °F
Dew Point: 58.4 °F 49.1 °F 54.2 °F
Humidity: 92 % 32 % 67 %
Wind Speed: 4.6 mph 0.0 mph 0.5 mph
Wind Gust: 4.6 mph - -
Wind:- - West
Pressure: 30.00 in 29.88 in -
Precipitation: 0.00 in    
Historical Graphs
 
 
Tabular Data for October 27, 2017
Time Temperature Dew Point Pressure Wind Wind Speed Wind Gust Humidity Rainfall Rate (Hourly)
00:01 60.4 °F 54.2 °F 29.92 in Calm     80 % 0.00 in
00:07 60.2 °F 54.0 °F 29.91 in Calm     80 % 0.00 in
00:12 60.0 °F 53.8 °F 29.92 in Calm     80 % 0.00 in
00:17 59.6 °F 53.8 °F 29.92 in Calm     81 % 0.00 in
00:22 59.2 °F 53.7 °F 29.92 in Calm     82 % 0.00 in
00:27 58.7 °F 53.5 °F 29.91 in Calm     83 % 0.00 in
00:32 58.4 °F 53.6 °F 29.92 in Calm     84 % 0.00 in
00:37 58.3 °F 53.8 °F 29.92 in Calm     85 % 0.00 in
00:42 58.2 °F 53.4 °F 29.92 in Calm     84 % 0.00 in
00:47 58.1 °F 53.3 °F 29.92 in Calm     84 % 0.00 in
00:52 58.3 °F 53.8 °F 29.92 in Calm     85 % 0.00 in
00:57 58.3 °F 53.5 °F 29.92 in Calm     84 % 0.00 in
01:02 58.2 °F 53.4 °F 29.92 in Calm     84 % 0.00 in
01:07 57.9 °F 53.1 °F 29.92 in Calm     84 % 0.00 in
01:12 57.5 °F 52.7 °F 29.92 in Calm     84 % 0.00 in
01:17 57.1 °F 52.3 °F 29.92 in Calm     84 % 0.00 in
01:22 56.8 °F 52.3 °F 29.92 in Calm     85 % 0.00 in
01:27 56.6 °F 52.5 °F 29.92 in Calm     86 % 0.00 in
01:32 56.3 °F 52.5 °F 29.92 in Calm     87 % 0.00 in
01:37 56.2 °F 52.7 °F 29.93 in Calm     88 % 0.00 in
01:42 56.1 °F 52.6 °F 29.93 in Calm     88 % 0.00 in
01:47 56.1 °F 52.6 °F 29.93 in Calm     88 % 0.00 in
01:52 56.0 °F 52.5 °F 29.93 in Calm     88 % 0.00 in
01:57 56.0 °F 52.2 °F 29.93 in Calm     87 % 0.00 in
02:02 55.9 °F 52.1 °F 29.93 in Calm     87 % 0.00 in
02:07 55.7 °F 51.9 °F 29.93 in Calm     87 % 0.00 in
02:12 55.4 °F 51.6 °F 29.93 in Calm     87 % 0.00 in
02:17 55.3 °F 51.5 °F 29.93 in Calm     87 % 0.00 in
02:22 55.3 °F 51.5 °F 29.93 in Calm     87 % 0.00 in
02:27 55.2 °F 51.1 °F 29.93 in Calm     86 % 0.00 in
02:32 55.1 °F 51.0 °F 29.93 in Calm     86 % 0.00 in
02:37 54.9 °F 50.8 °F 29.93 in Calm     86 % 0.00 in
02:42 54.7 °F 50.9 °F 29.93 in Calm     87 % 0.00 in
02:47 54.7 °F 51.2 °F 29.93 in Calm     88 % 0.00 in
02:52 54.7 °F 51.2 °F 29.93 in Calm     88 % 0.00 in
02:57 55.1 °F 51.3 °F 29.94 in Calm     87 % 0.00 in
03:02 55.5 °F 51.4 °F 29.93 in Calm     86 % 0.00 in
03:07 55.7 °F 51.6 °F 29.93 in Calm     86 % 0.00 in
03:12 55.7 °F 51.6 °F 29.93 in Calm     86 % 0.00 in
03:17 55.5 °F 51.1 °F 29.93 in Calm     85 % 0.00 in
03:22 55.4 °F 51.3 °F 29.94 in Calm     86 % 0.00 in
03:27 55.1 °F 51.0 °F 29.93 in Calm     86 % 0.00 in
03:32 55.0 °F 50.9 °F 29.93 in Calm     86 % 0.00 in
03:37 54.8 °F 51.0 °F 29.93 in Calm     87 % 0.00 in
03:42 54.6 °F 50.5 °F 29.93 in Calm     86 % 0.00 in
03:47 54.5 °F 50.7 °F 29.93 in Calm     87 % 0.00 in
03:52 54.3 °F 50.5 °F 29.93 in Calm     87 % 0.00 in
03:57 54.2 °F 50.4 °F 29.93 in Calm     87 % 0.00 in
04:02 54.1 °F 50.3 °F 29.93 in Calm     87 % 0.00 in
04:07 54.0 °F 50.2 °F 29.94 in Calm     87 % 0.00 in
04:12 54.0 °F 50.5 °F 29.94 in Calm     88 % 0.00 in
04:17 54.1 °F 50.6 °F 29.94 in Calm     88 % 0.00 in
04:22 54.1 °F 50.6 °F 29.94 in Calm     88 % 0.00 in
04:27 53.9 °F 50.1 °F 29.94 in Calm     87 % 0.00 in
04:32 53.7 °F 49.9 °F 29.94 in Calm     87 % 0.00 in
04:37 53.7 °F 50.2 °F 29.94 in Calm     88 % 0.00 in
04:42 53.7 °F 50.2 °F 29.95 in Calm     88 % 0.00 in
04:47 53.8 °F 50.3 °F 29.95 in Calm     88 % 0.00 in
04:52 54.1 °F 50.3 °F 29.95 in Calm     87 % 0.00 in
04:57 54.2 °F 50.1 °F 29.94 in Calm     86 % 0.00 in
05:02 54.1 °F 50.0 °F 29.94 in Calm     86 % 0.00 in
05:07 53.9 °F 50.1 °F 29.94 in Calm     87 % 0.00 in
05:12 53.8 °F 50.0 °F 29.94 in Calm     87 % 0.00 in
05:17 53.7 °F 50.2 °F 29.95 in Calm     88 % 0.00 in
05:22 53.8 °F 50.6 °F 29.95 in Calm     89 % 0.00 in
05:27 53.7 °F 50.5 °F 29.95 in Calm     89 % 0.00 in
05:32 53.5 °F 50.3 °F 29.95 in Calm     89 % 0.00 in
05:37 53.3 °F 50.1 °F 29.95 in Calm     89 % 0.00 in
05:42 53.4 °F 50.2 °F 29.95 in Calm     89 % 0.00 in
05:52 53.7 °F 49.9 °F 29.95 in Calm     87 % 0.00 in
05:57 53.7 °F 49.9 °F 29.95 in Calm     87 % 0.00 in
06:02 53.6 °F 49.8 °F 29.96 in Calm     87 % 0.00 in
06:07 53.5 °F 49.7 °F 29.96 in Calm     87 % 0.00 in
06:12 53.6 °F 50.4 °F 29.96 in Calm     89 % 0.00 in
06:17 53.5 °F 50.0 °F 29.96 in Calm     88 % 0.00 in
06:22 53.2 °F 49.4 °F 29.96 in Calm     87 % 0.00 in
06:27 52.9 °F 49.4 °F 29.96 in Calm     88 % 0.00 in
06:32 52.6 °F 49.1 °F 29.96 in Calm     88 % 0.00 in
06:37 52.4 °F 49.3 °F 29.96 in Calm     89 % 0.00 in
06:42 52.5 °F 49.4 °F 29.96 in Calm     89 % 0.00 in
06:47 52.6 °F 49.8 °F 29.96 in Calm     90 % 0.00 in
06:52 52.6 °F 49.8 °F 29.96 in Calm     90 % 0.00 in
06:57 52.5 °F 49.4 °F 29.96 in Calm     89 % 0.00 in
07:02 52.5 °F 49.7 °F 29.96 in Calm     90 % 0.00 in
07:07 52.4 °F 49.6 °F 29.96 in Calm     90 % 0.00 in
07:12 52.3 °F 49.5 °F 29.96 in Calm     90 % 0.00 in
07:17 52.4 °F 49.8 °F 29.96 in Calm     91 % 0.00 in
07:22 52.6 °F 50.3 °F 29.96 in Calm     92 % 0.00 in
07:27 52.7 °F 50.4 °F 29.97 in Calm     92 % 0.00 in
07:32 52.9 °F 50.0 °F 29.97 in Calm     90 % 0.00 in
07:37 53.1 °F 50.2 °F 29.97 in Calm     90 % 0.00 in
07:42 53.2 °F 50.3 °F 29.97 in Calm     90 % 0.00 in
07:47 53.4 °F 50.8 °F 29.97 in Calm     91 % 0.00 in
07:52 53.7 °F 50.5 °F 29.98 in Calm     89 % 0.00 in
07:57 53.9 °F 50.7 °F 29.98 in Calm     89 % 0.00 in
08:02 54.1 °F 50.9 °F 29.98 in Calm     89 % 0.00 in
08:07 54.3 °F 50.8 °F 29.98 in Calm     88 % 0.00 in
08:12 54.8 °F 51.3 °F 29.98 in Calm     88 % 0.00 in
08:17 55.6 °F 51.8 °F 29.99 in Calm     87 % 0.00 in
08:22 56.5 °F 52.4 °F 29.99 in Calm     86 % 0.00 in
08:27 57.5 °F 53.0 °F 29.99 in Calm     85 % 0.00 in
08:32 58.9 °F 53.7 °F 29.99 in Calm     83 % 0.00 in
08:38 60.1 °F 54.6 °F 30.00 in Calm     82 % 0.00 in
08:43 61.3 °F 54.7 °F 29.99 in Calm     79 % 0.00 in
08:48 62.9 °F 55.6 °F 29.99 in Calm     77 % 0.00 in
08:53 64.5 °F 55.3 °F 29.99 in Calm     72 % 0.00 in
08:58 65.3 °F 53.6 °F 29.99 in Calm     66 % 0.00 in
09:03 65.3 °F 54.9 °F 29.99 in Calm     69 % 0.00 in
09:08 66.4 °F 55.5 °F 29.99 in Calm     68 % 0.00 in
09:13 67.0 °F 55.7 °F 30.00 in Calm     67 % 0.00 in
09:18 67.3 °F 55.5 °F 30.00 in Calm     66 % 0.00 in
09:23 68.0 °F 55.8 °F 30.00 in Calm     65 % 0.00 in
09:28 68.3 °F 54.8 °F 30.00 in Calm     62 % 0.00 in
09:33 68.8 °F 53.9 °F 30.00 in West 1.2 mph   59 % 0.00 in
09:38 69.6 °F 54.6 °F 30.00 in West 1.2 mph 1.2 mph 59 % 0.00 in
09:43 70.1 °F 54.2 °F 30.00 in West 1.2 mph   57 % 0.00 in
09:48 70.4 °F 54.0 °F 30.00 in Calm     56 % 0.00 in
09:53 71.3 °F 52.8 °F 30.00 in ESE 1.2 mph 1.2 mph 52 % 0.00 in
09:58 72.2 °F 53.6 °F 30.00 in SE 1.2 mph 1.2 mph 52 % 0.00 in
10:03 73.2 °F 53.4 °F 30.00 in SE 1.2 mph 1.2 mph 50 % 0.00 in
10:08 74.0 °F 54.7 °F 30.00 in SW 1.2 mph 1.2 mph 51 % 0.00 in
10:13 74.0 °F 54.2 °F 30.00 in SW 1.2 mph 1.2 mph 50 % 0.00 in
10:18 74.1 °F 54.3 °F 30.00 in Calm     50 % 0.00 in
10:23 74.9 °F 53.9 °F 30.00 in Calm     48 % 0.00 in
10:28 75.1 °F 53.5 °F 30.00 in ESE 1.2 mph 1.2 mph 47 % 0.00 in
10:33 75.9 °F 54.2 °F 30.00 in Calm   0.1 mph 47 % 0.00 in
10:38 76.4 °F 54.1 °F 30.00 in ESE 1.2 mph 1.2 mph 46 % 0.00 in
10:43 76.6 °F 53.7 °F 29.99 in SE 2.3 mph 2.3 mph 45 % 0.00 in
10:48 76.7 °F 53.8 °F 29.99 in NW 1.2 mph 1.2 mph 45 % 0.00 in
10:53 77.0 °F 54.6 °F 29.99 in NNW 1.2 mph 1.2 mph 46 % 0.00 in
10:58 77.6 °F 55.2 °F 29.99 in South 1.2 mph 1.2 mph 46 % 0.00 in
11:03 78.0 °F 54.9 °F 29.99 in SE 3.5 mph 3.5 mph 45 % 0.00 in
11:08 78.1 °F 55.6 °F 29.99 in Calm     46 % 0.00 in
11:13 78.8 °F 55.0 °F 29.99 in East 2.3 mph 2.3 mph 44 % 0.00 in
11:18 79.2 °F 56.0 °F 29.98 in NE 1.2 mph 1.2 mph 45 % 0.00 in
11:23 79.6 °F 55.8 °F 29.98 in NW 1.2 mph 1.2 mph 44 % 0.00 in
11:28 79.6 °F 55.1 °F 29.98 in Calm   0.4 mph 43 % 0.00 in
11:33 79.6 °F 57.0 °F 29.98 in WSW 1.2 mph 1.2 mph 46 % 0.00 in
11:38 80.0 °F 56.1 °F 29.98 in NW 1.2 mph 1.2 mph 44 % 0.00 in
11:43 80.1 °F 55.6 °F 29.98 in NW 1.2 mph   43 % 0.00 in
11:48 80.2 °F 55.7 °F 29.98 in NW 1.2 mph 1.2 mph 43 % 0.00 in
11:53 80.4 °F 56.5 °F 29.97 in NW 1.2 mph 1.2 mph 44 % 0.00 in
11:58 80.9 °F 56.9 °F 29.97 in SSE 1.2 mph 1.2 mph 44 % 0.00 in
12:03 81.4 °F 56.8 °F 29.97 in NW 1.2 mph 1.2 mph 43 % 0.00 in
12:08 81.7 °F 57.0 °F 29.97 in NW 1.2 mph 1.2 mph 43 % 0.00 in
12:13 81.7 °F 56.4 °F 29.97 in NNW 1.0 mph 1.0 mph 42 % 0.00 in
12:18 82.0 °F 56.6 °F 29.96 in SE 1.2 mph 1.2 mph 42 % 0.00 in
12:23 82.9 °F 56.8 °F 29.96 in Calm     41 % 0.00 in
12:28 83.2 °F 58.4 °F 29.96 in NNW 1.0 mph   43 % 0.00 in
12:33 83.7 °F 58.2 °F 29.96 in SE 2.3 mph 2.3 mph 42 % 0.00 in
12:38 83.8 °F 57.6 °F 29.95 in SE 1.2 mph 1.2 mph 41 % 0.00 in
12:43 84.1 °F 57.2 °F 29.95 in ENE 1.2 mph   40 % 0.00 in
12:48 84.0 °F 58.4 °F 29.95 in WNW 1.2 mph 1.2 mph 42 % 0.00 in
12:53 83.9 °F 57.0 °F 29.94 in NW 1.2 mph 1.2 mph 40 % 0.00 in
12:58 83.9 °F 57.0 °F 29.94 in WNW 2.3 mph 2.3 mph 40 % 0.00 in
13:03 83.8 °F 56.2 °F 29.94 in NW 2.3 mph 2.3 mph 39 % 0.00 in
13:08 83.9 °F 56.3 °F 29.94 in SW 1.2 mph 1.2 mph 39 % 0.00 in
13:13 84.2 °F 56.6 °F 29.93 in NNW 1.2 mph 1.2 mph 39 % 0.00 in
13:18 84.5 °F 58.2 °F 29.93 in Calm     41 % 0.00 in
13:23 85.1 °F 58.1 °F 29.93 in Calm     40 % 0.00 in
13:28 85.4 °F 58.3 °F 29.93 in NW 1.2 mph 1.2 mph 40 % 0.00 in
13:33 85.3 °F 58.2 °F 29.93 in WNW 1.2 mph 1.2 mph 40 % 0.00 in
13:38 85.2 °F 57.4 °F 29.92 in NW 2.3 mph 2.3 mph 39 % 0.00 in
13:43 85.4 °F 56.9 °F 29.92 in WNW 1.2 mph   38 % 0.00 in
13:48 85.8 °F 56.5 °F 29.92 in North 1.2 mph 1.2 mph 37 % 0.00 in
13:53 85.7 °F 56.4 °F 29.91 in WSW 1.2 mph   37 % 0.00 in
13:59 85.8 °F 56.5 °F 29.91 in Calm     37 % 0.00 in
14:04 85.8 °F 56.5 °F 29.91 in WNW 1.2 mph 1.2 mph 37 % 0.00 in
14:09 85.9 °F 56.6 °F 29.91 in NW 1.2 mph   37 % 0.00 in
14:14 86.1 °F 56.0 °F 29.91 in NW 3.5 mph 3.5 mph 36 % 0.00 in
14:19 86.1 °F 57.5 °F 29.90 in NW 2.0 mph 2.0 mph 38 % 0.00 in
14:24 85.9 °F 55.8 °F 29.90 in NNW 2.0 mph 2.0 mph 36 % 0.00 in
14:29 85.9 °F 56.6 °F 29.90 in WNW 2.3 mph 2.3 mph 37 % 0.00 in
14:34 86.2 °F 56.9 °F 29.90 in North 1.2 mph 1.2 mph 37 % 0.00 in
14:39 86.3 °F 56.2 °F 29.90 in North 1.2 mph 1.2 mph 36 % 0.00 in
14:44 86.5 °F 56.4 °F 29.90 in NW 3.5 mph 3.5 mph 36 % 0.00 in
14:49 86.4 °F 57.0 °F 29.89 in NW 1.2 mph 1.2 mph 37 % 0.00 in
14:54 86.5 °F 56.4 °F 29.89 in NNE 1.2 mph 1.2 mph 36 % 0.00 in
14:59 86.8 °F 57.4 °F 29.89 in West 1.2 mph   37 % 0.00 in
15:04 86.9 °F 56.0 °F 29.89 in West 2.3 mph 2.3 mph 35 % 0.00 in
15:09 86.6 °F 56.5 °F 29.89 in NNW 3.0 mph 3.0 mph 36 % 0.00 in
15:14 86.4 °F 55.5 °F 29.89 in West 3.5 mph 3.5 mph 35 % 0.00 in
15:19 86.5 °F 55.6 °F 29.89 in WNW 2.3 mph 2.3 mph 35 % 0.00 in
15:24 86.5 °F 54.8 °F 29.89 in Calm     34 % 0.00 in
15:29 86.6 °F 56.5 °F 29.89 in WNW 2.3 mph 2.3 mph 36 % 0.00 in
15:34 86.4 °F 56.3 °F 29.89 in NW 2.3 mph 2.3 mph 36 % 0.00 in
15:39 86.2 °F 55.3 °F 29.89 in NW 1.2 mph 1.2 mph 35 % 0.00 in
15:44 86.1 °F 54.5 °F 29.89 in NW 4.6 mph 4.6 mph 34 % 0.00 in
15:54 86.0 °F 55.2 °F 29.89 in NW 2.3 mph 2.3 mph 35 % 0.00 in
15:59 85.8 °F 53.4 °F 29.88 in WNW 1.2 mph 1.2 mph 33 % 0.00 in
16:04 85.7 °F 53.3 °F 29.88 in NW 3.5 mph 3.5 mph 33 % 0.00 in
16:09 85.6 °F 53.2 °F 29.88 in NW 2.3 mph 2.3 mph 33 % 0.00 in
16:14 85.5 °F 53.9 °F 29.88 in North 1.2 mph   34 % 0.00 in
16:19 85.4 °F 53.0 °F 29.88 in NNW 1.2 mph 1.2 mph 33 % 0.00 in
16:24 85.2 °F 52.0 °F 29.88 in NW 1.2 mph 1.2 mph 32 % 0.00 in
16:29 85.2 °F 52.0 °F 29.88 in NW 1.2 mph 1.2 mph 32 % 0.00 in
16:34 85.1 °F 51.9 °F 29.88 in NNW 1.2 mph 1.3 mph 32 % 0.00 in
16:39 85.2 °F 52.8 °F 29.88 in WNW 1.2 mph 1.2 mph 33 % 0.00 in
16:44 84.9 °F 54.2 °F 29.88 in WNW 3.0 mph 3.0 mph 35 % 0.00 in
16:49 84.8 °F 54.1 °F 29.88 in Calm     35 % 0.00 in
16:54 84.6 °F 53.9 °F 29.88 in NNW 2.3 mph 2.3 mph 35 % 0.00 in
16:59 84.3 °F 54.4 °F 29.88 in Calm     36 % 0.00 in
17:04 84.0 °F 54.9 °F 29.88 in NNW 1.2 mph 1.2 mph 37 % 0.00 in
17:09 83.8 °F 55.5 °F 29.88 in NNW 1.2 mph   38 % 0.00 in
17:14 83.5 °F 55.2 °F 29.88 in Calm     38 % 0.00 in
17:19 83.1 °F 55.6 °F 29.88 in Calm     39 % 0.00 in
17:24 82.7 °F 55.9 °F 29.88 in Calm     40 % 0.00 in
17:29 82.2 °F 56.2 °F 29.88 in Calm     41 % 0.00 in
17:34 81.7 °F 55.7 °F 29.88 in Calm     41 % 0.00 in
17:39 81.2 °F 56.6 °F 29.88 in Calm     43 % 0.00 in
17:44 80.5 °F 55.9 °F 29.88 in Calm     43 % 0.00 in
17:49 79.8 °F 56.6 °F 29.88 in Calm     45 % 0.00 in
17:54 79.0 °F 56.5 °F 29.88 in Calm     46 % 0.00 in
17:59 78.1 °F 56.8 °F 29.88 in Calm     48 % 0.00 in
18:04 77.1 °F 58.1 °F 29.88 in Calm     52 % 0.00 in
18:09 76.2 °F 57.8 °F 29.88 in Calm     53 % 0.00 in
18:14 75.5 °F 57.2 °F 29.88 in Calm     53 % 0.00 in
18:19 74.9 °F 57.1 °F 29.88 in Calm     54 % 0.00 in
18:24 74.3 °F 57.1 °F 29.88 in Calm     55 % 0.00 in
18:29 73.7 °F 58.0 °F 29.88 in Calm     58 % 0.00 in
18:34 73.0 °F 57.8 °F 29.88 in Calm     59 % 0.00 in
18:39 72.4 °F 57.3 °F 29.88 in Calm     59 % 0.00 in
18:44 71.9 °F 56.8 °F 29.89 in Calm     59 % 0.00 in
18:49 71.6 °F 57.0 °F 29.88 in Calm     60 % 0.00 in
18:54 71.3 °F 57.6 °F 29.89 in Calm     62 % 0.00 in
18:59 70.8 °F 56.2 °F 29.89 in Calm     60 % 0.00 in
19:05 70.5 °F 56.9 °F 29.89 in Calm     62 % 0.00 in
19:10 70.1 °F 56.9 °F 29.89 in Calm     63 % 0.00 in
19:15 70.0 °F 56.8 °F 29.89 in Calm     63 % 0.00 in
19:20 69.9 °F 56.7 °F 29.89 in Calm     63 % 0.00 in
19:25 69.7 °F 56.5 °F 29.89 in Calm     63 % 0.00 in
19:30 69.5 °F 56.3 °F 29.89 in Calm     63 % 0.00 in
19:35 69.6 °F 56.4 °F 29.89 in Calm     63 % 0.00 in
19:40 69.2 °F 56.5 °F 29.89 in Calm     64 % 0.00 in
19:45 68.8 °F 56.6 °F 29.88 in Calm     65 % 0.00 in
19:50 68.4 °F 56.6 °F 29.89 in Calm     66 % 0.00 in
19:55 68.0 °F 56.6 °F 29.88 in Calm     67 % 0.00 in
20:00 67.6 °F 57.5 °F 29.88 in Calm     70 % 0.00 in
20:05 67.3 °F 57.2 °F 29.89 in Calm     70 % 0.00 in
20:10 67.1 °F 57.0 °F 29.89 in Calm     70 % 0.00 in
20:15 66.9 °F 57.6 °F 29.89 in Calm     72 % 0.00 in
20:20 66.6 °F 56.9 °F 29.89 in Calm     71 % 0.00 in
20:22 66.6 °F 56.9 °F 29.89 in Calm     71 % 0.00 in
20:25 66.4 °F 56.7 °F 29.89 in Calm     71 % 0.00 in
20:30 66.1 °F 57.2 °F 29.89 in Calm     73 % 0.00 in
20:35 65.8 °F 57.3 °F 29.89 in Calm     74 % 0.00 in
20:40 65.5 °F 58.1 °F 29.89 in Calm     77 % 0.00 in
20:45 65.2 °F 57.1 °F 29.89 in Calm     75 % 0.00 in
20:50 65.0 °F 57.2 °F 29.89 in Calm     76 % 0.00 in
20:55 64.8 °F 56.7 °F 29.89 in Calm     75 % 0.00 in
21:00 64.7 °F 57.3 °F 29.89 in Calm     77 % 0.00 in
21:10 64.4 °F 56.7 °F 29.89 in Calm     76 % 0.00 in
21:15 64.2 °F 56.8 °F 29.90 in Calm     77 % 0.00 in
21:20 63.6 °F 56.6 °F 29.89 in Calm     78 % 0.00 in
21:25 62.9 °F 56.3 °F 29.90 in Calm     79 % 0.00 in
21:30 62.5 °F 56.2 °F 29.90 in Calm     80 % 0.00 in
21:35 62.5 °F 56.6 °F 29.90 in Calm     81 % 0.00 in
21:40 62.5 °F 56.6 °F 29.90 in Calm     81 % 0.00 in
21:45 62.7 °F 56.8 °F 29.90 in Calm     81 % 0.00 in
21:50 62.8 °F 56.9 °F 29.91 in Calm     81 % 0.00 in
21:55 62.6 °F 56.7 °F 29.91 in Calm     81 % 0.00 in
22:00 62.3 °F 56.4 °F 29.91 in Calm     81 % 0.00 in
22:05 62.2 °F 56.6 °F 29.91 in Calm     82 % 0.00 in
22:10 62.0 °F 56.4 °F 29.91 in Calm     82 % 0.00 in
22:15 61.7 °F 56.1 °F 29.91 in Calm     82 % 0.00 in
22:20 61.5 °F 56.3 °F 29.91 in Calm     83 % 0.00 in
22:25 61.3 °F 56.1 °F 29.90 in Calm     83 % 0.00 in
22:30 61.0 °F 56.1 °F 29.91 in Calm     84 % 0.00 in
22:35 60.9 °F 56.0 °F 29.91 in Calm     84 % 0.00 in
22:40 60.7 °F 55.8 °F 29.91 in Calm     84 % 0.00 in
22:45 60.5 °F 56.0 °F 29.91 in Calm     85 % 0.00 in
22:50 60.3 °F 55.8 °F 29.91 in Calm     85 % 0.00 in
22:55 60.1 °F 55.6 °F 29.91 in Calm     85 % 0.00 in
23:00 59.9 °F 55.7 °F 29.91 in Calm     86 % 0.00 in
23:01 59.9 °F 55.7 °F 29.91 in Calm     86 % 0.00 in
23:06 59.8 °F 55.9 °F 29.91 in Calm     87 % 0.00 in
23:11 59.7 °F 55.8 °F 29.91 in Calm     87 % 0.00 in
23:16 59.6 °F 55.4 °F 29.91 in Calm     86 % 0.00 in
23:21 59.4 °F 55.5 °F 29.91 in Calm     87 % 0.00 in
23:26 59.3 °F 55.4 °F 29.91 in Calm     87 % 0.00 in
23:31 59.1 °F 55.2 °F 29.91 in Calm     87 % 0.00 in
23:36 59.1 °F 55.2 °F 29.91 in Calm     87 % 0.00 in
23:41 59.2 °F 55.3 °F 29.91 in Calm     87 % 0.00 in
23:46 59.4 °F 55.5 °F 29.91 in Calm     87 % 0.00 in
23:52 59.4 °F 55.2 °F 29.91 in Calm     86 % 0.00 in
23:57 59.3 °F 55.1 °F 29.91 in Calm     86 % 0.00 in
Park Place, Exeter, Tulare County, California, USA
Compliments of Weather Underground - 2.75 mb